D4539 Weather Reports


time (UTC)temp
F
wind
direction
speed
knots
gust
knots
rain 1hr
in
rain 24hr
in
rain mn
in
humidity
%
barometer
mb
20260503054504 38 302 0.9 1.7 0.00 0.00 0.00 74 1014.8
20260503053529 39 302 0.9 2.6 0.00 0.00 0.00 72 1014.9
20260503052512 39 302 0.9 5.2 0.00 0.00 0.00 71 1014.8
20260503051459 40 301 2.6 7.0 0.00 0.00 0.00 71 1014.8
20260503050508 40 294 4.3 7.0 0.00 0.00 0.00 70 1014.8
20260503045531 40 315 3.5 7.8 0.00 0.00 0.00 69 1014.6
20260503044517 40 289 4.3 7.8 0.00 0.00 0.00 69 1014.8
20260503043503 40 305 7.0 13.0 0.00 0.00 0.00 70 1014.6
20260503042508 40 300 8.7 13.0 0.00 0.00 0.00 70 1014.4
20260503041514 40 313 5.2 7.8 0.00 0.00 0.00 70 1014.4
20260503040502 40 300 2.6 7.0 0.00 0.00 0.00 69 1014.3
20260503035518 40 305 3.5 7.0 0.00 0.00 0.00 69 1014.3
20260503034503 40 306 4.3 7.8 0.00 0.00 0.00 69 1014.3
20260503033513 41 304 3.5 7.8 0.00 0.00 0.00 69 1014.2
20260503032517 41 303 4.3 7.8 0.00 0.00 0.00 67 1014.0
20260503031503 41 304 5.2 7.8 0.00 0.00 0.00 66 1014.0
20260503030510 41 306 5.2 9.6 0.00 0.00 0.00 66 1014.8
20260503025517 41 300 2.6 8.7 0.00 0.00 0.00 66 1014.7
20260503024507 42 17 5.2 9.6 0.00 0.00 0.00 66 1014.7
20260503023516 42 298 7.0 12.2 0.00 0.00 0.00 65 1014.7
20260503022522 42 296 7.8 13.9 0.00 0.00 0.00 65 1014.5
20260503021508 42 293 7.8 12.2 0.00 0.00 0.00 65 1014.6
20260503020535 42 310 4.3 9.6 0.00 0.00 0.00 66 1014.6
20260503015520 42 308 5.2 8.7 0.00 0.00 0.00 65 1014.4
20260503014524 43 315 2.6 9.6 0.00 0.00 0.00 65 1014.3
20260503013531 43 300 4.3 8.7 0.00 0.00 0.00 64 1014.3
20260503012512 43 292 4.3 7.0 0.00 0.00 0.00 64 1014.1
20260503011517 43 333 2.6 8.7 0.00 0.00 0.00 63 1013.9
20260503010506 44 290 6.1 10.4 0.00 0.00 0.00 62 1013.9
20260503005516 44 301 2.6 10.4 0.00 0.00 0.00 62 1014.0
20260503004521 45 291 5.2 9.6 0.00 0.00 0.00 62 1013.8
20260503003509 45 305 4.3 9.6 0.00 0.00 0.00 61 1013.9
20260503002515 46 360 4.3 11.3 0.00 0.00 0.00 59 1013.6
20260503001521 46 355 3.5 13.9 0.00 0.00 0.00 58 1013.6
20260503000507 47 301 4.3 8.7 0.00 0.00 0.00 57 1013.6
20260502235515 47 20 4.3 13.9 0.00 0.00 0.00 56 1013.2
20260502234504 48 317 11.3 15.6 0.00 0.00 0.00 55 1013.0
20260502233510 48 314 6.1 13.9 0.00 0.00 0.00 54 1012.9
20260502232518 49 310 5.2 9.6 0.00 0.00 0.00 53 1012.8
20260502231502 49 302 7.0 14.8 0.00 0.00 0.00 52 1012.7
20260502230510 49 17 7.8 13.0 0.00 0.00 0.00 53 1012.7
20260502225516 49 312 3.5 9.6 0.00 0.00 0.00 53 1012.6
20260502224519 50 326 3.5 13.0 0.00 0.00 0.00 53 1012.6
20260502223531 50 355 6.1 15.6 0.00 0.00 0.00 52 1012.6
20260502222516 50 355 9.6 16.5 0.00 0.00 0.00 51 1012.6
20260502221505 50 307 8.7 15.6 0.00 0.00 0.00 52 1012.3
20260502220532 50 293 9.6 23.5 0.00 0.00 0.00 50 1012.1
20260502215515 52 18 8.7 13.9 0.00 0.00 0.00 48 1012.1
20260502214504 52 307 7.0 15.6 0.00 0.00 0.00 49 1011.9
20260502213511 52 350 7.0 14.8 0.00 0.00 0.00 51 1011.9
20260502212518 51 303 6.1 15.6 0.00 0.00 0.00 50 1011.9
20260502211503 54 346 10.4 18.2 0.00 0.00 0.00 47 1011.7
20260502210512 54 355 7.8 19.1 0.00 0.00 0.00 47 1011.5
20260502205520 53 5 10.4 20.0 0.00 0.00 0.00 47 1011.4
20260502204506 54 11 6.1 15.6 0.00 0.00 0.00 46 1011.3
20260502203510 55 302 6.1 14.8 0.00 0.00 0.00 45 1011.3
20260502202517 55 11 8.7 17.4 0.00 0.00 0.00 47 1011.2
20260502201522 56 300 4.3 18.2 0.00 0.00 0.00 45 1011.2
20260502200509 58 286 5.2 13.0 0.00 0.00 0.00 44 1011.2
20260502195521 58 314 7.8 16.5 0.00 0.00 0.00 43 1011.1
20260502194506 58 346 7.8 14.8 0.00 0.00 0.00 43 1011.4
20260502193514 57 288 4.3 13.0 0.00 0.00 0.00 44 1011.5
20260502192507 56 12 7.8 15.6 0.00 0.00 0.00 47 1011.7
20260502191512 56 17 5.2 15.6 0.00 0.00 0.00 44 1011.7
20260502190518 56 29 4.3 13.0 0.00 0.00 0.00 43 1011.6
20260502185504 56 303 1.7 17.4 0.00 0.00 0.00 41 1011.5
20260502184533 56 355 9.6 13.9 0.00 0.00 0.00 46 1011.6
20260502183517 55 281 5.2 14.8 0.00 0.00 0.00 46 1011.6
20260502182508 56 28 8.7 15.6 0.00 0.00 0.00 44 1011.6
20260502181517 55 336 6.1 10.4 0.00 0.00 0.00 47 1011.8
20260502180503 55 304 7.0 13.0 0.00 0.00 0.00 48 1012.1
20260502170518 52 307 4.3 11.3 0.00 0.00 0.00 49 1012.6
20260502163516 52 360 7.0 9.6 0.00 0.00 0.00 54 1013.2
20260502162519 51 355 6.1 13.0 0.00 0.00 0.00 50 1013.3
20260502161509 51 326 4.3 15.6 0.00 0.00 0.00 52 1013.4
20260502160537 50 304 7.0 11.3 0.00 0.00 0.00 55 1013.4
20260502151508 47 17 5.2 9.6 0.00 0.00 0.00 57 1013.7
20260502150516 46 355 7.0 14.8 0.00 0.00 0.00 57 1013.6
20260502130508 44 346 3.5 17.4 0.00 0.00 0.00 61 1013.3
20260502123512 43 5 8.7 13.0 0.00 0.00 0.00 64 1012.9
20260502122520 43 302 5.2 13.0 0.00 0.00 0.00 65 1012.9
20260502121505 43 5 6.1 12.2 0.00 0.00 0.00 68 1012.7
20260502120536 43 355 5.2 13.0 0.00 0.00 0.00 69 1012.6
20260502115506 43 314 6.1 13.0 0.00 0.00 0.00 70 1012.8
20260502114512 43 323 7.0 11.3 0.00 0.00 0.00 70 1012.8
20260502113537 43 296 7.8 16.5 0.00 0.00 0.00 70 1012.8
20260502112504 43 5 5.2 14.8 0.00 0.00 0.00 70 1012.5
20260502111514 43 286 7.0 11.3 0.00 0.00 0.00 70 1012.5
20260502110520 43 333 7.0 11.3 0.00 0.00 0.00 71 1012.5
20260502105505 43 335 5.2 10.4 0.00 0.00 0.00 72 1012.5
20260502104515 43 295 6.1 10.4 0.00 0.00 0.00 73 1012.4
20260502103509 43 296 2.6 14.8 0.00 0.00 0.00 75 1012.4
20260502102515 44 303 3.5 8.7 0.00 0.00 0.00 77 1012.3
20260502101508 44 295 4.3 11.3 0.00 0.00 0.00 78 1012.3
20260502100512 44 355 1.7 12.2 0.00 0.00 0.00 78 1012.5
20260502091511 45 355 4.3 11.3 0.00 0.00 0.00 80 1012.8
20260502090516 45 334 5.2 13.0 0.00 0.00 0.00 80 1012.8
20260502070508 46 355 4.3 12.2 0.00 0.00 0.00 79 1012.2
20260502065513 47 293 2.6 10.4 0.00 0.00 0.00 79 1012.4
20260502064521 47 323 6.1 9.6 0.00 0.00 0.00 79 1012.5
20260502063509 47 311 6.1 10.4 0.00 0.00 0.00 79 1012.7